Location: Devore Heights
(34.2372°N, 117.4156°W)
Time: 19:39:49
(UTC+00:00)

Vanguard 1 Rocket - Pass Details

Date: 20 September 2024
Orbit: 650 x 4218 km, 34.3° (Epoch: 04 October)

Event Time Altitude Azimuth Distance (km) Brightness Sun altitude
Rises 18:42:07 0° 284° (WNW) 8,160 12.0 53.6°
Reaches altitude 10° 18:49:42 10° 272° (W) 7,363 12.0 54.2°
Maximum altitude 19:06:34 22° 231° (SW) 6,191 12.1 55.4°
Drops below altitude 10° 19:21:32 10° 188° (S) 6,362 12.4 56.1°
Sets 19:27:36 0° 174° (S) 6,837 12.4 56.2°
